Weather in Kurchaloy

Russia / Chechen Republic     43°12′16″N   46°05′20″E
temp.,
°C
wind,
m/s
gust,
m/s
humid.,
%
clouds,
%
prec.,
mm/h
press.,
hPa
HPBL,
m
8 march, mon
mon800:00−1e225831 0.0 102291
03:00−2ne126415 0.0 102269
06:00−2wnw11674 0.0 102243
09:00+1wnw225218 0.0 1020505
12:00+4nne214799 0.0 1018955
15:00+6nnw224383 0.0 10161236
18:00+3nnw2277100 0.1 1018541
21:00+2wsw2394100 0.8 1019252
9 march, tue
tue900:00+2w1290100 0.6 1018234
03:00+1ese118990 0.6 1018138
06:00+1sse018691 0.0 101833
09:00+4nw016894 0.0 1017454
12:00+7ne324740 0.0 10161185
15:00+8ne214043 0.0 10161611
18:00+6e124932 0.0 1017204
21:00+5sse125945 0.0 102030
10 march, wed
wed1000:00+3n4780100 0.1 1021643
03:00+1w0196100 2.1 1022117
06:00+1s1196100 1.3 1023108
09:00+1wnw1198100 5.1 102492
12:00+3w136795 0.8 1023768
15:00+5nw224790 0.9 10221456
18:00+3nne2357100 0.0 1023204
21:00+2e2370100 0.0 1024566
11 march, thu
thu1100:00+1ne366399 0.0 1023425
03:000ene5869100 0.0 1022602
06:00−3ene5892100 0.3 1023536
09:00−2ene5891100 1.3 1023620
12:00−1ne7989100 1.1 1021760
15:00−2ne71193100 3.5 1021831
18:00−5ne71195100 1.8 1021820
21:00−5ne61095100 4.3 1023675
12 march, fri
fri1200:00−6ne51096100 1.7 1022678
03:00−6ne5996100 3.9 1022659
06:00−6ne51096100 1.7 1024695
09:00−5ne6994100 2.9 1025762
12:00−5ne5895100 1.3 1025692
15:00−5ne5795100 3.1 1027623
18:00−6ne4796100 1.0 1029488
21:00−8ene3697100 1.3 1032234